GEFSCGP_500_meanwind_222.txt.gz
Wind_Speed
22 20 18 16 13 11 9 7 5 3 3 4 6 8 9 10 11 13 14 16 17 18 17 17 17 17 16 16 16 16 15 15 14 13 12 11 10 9 7 6 5 4 3 2
23 20 18 17 16 15 13 11 8 6 5 4 7 9 9 11 9 11 12 14 15 15 16 15 15 15 15 15 15 15 15 15 14 13 11 9 8 8 7 6 5 5 3 2
23 21 20 20 18 18 17 14 12 9 6 5 6 8 8 10 9 9 11 12 12 13 14 14 14 15 14 14 14 14 13 13 13 12 11 10 8 7 6 6 6 5 4 3
25 24 23 22 21 20 18 16 14 12 9 8 7 8 7 8 8 9 10 10 11 12 13 13 13 14 14 14 14 13 12 12 12 12 11 10 9 8 7 6 6 5 4 4
27 26 25 24 22 21 20 19 17 15 14 11 10 9 7 8 8 10 10 11 10 11 11 12 12 12 12 13 12 12 11 11 11 11 10 10 9 8 8 7 6 6 5 5
28 27 27 25 23 22 21 21 21 19 17 15 12 11 9 9 9 9 11 10 9 9 9 10 10 11 11 11 11 11 11 11 11 10 10 9 9 8 8 8 7 7 7 6
30 28 27 26 25 24 23 23 23 22 20 17 13 13 10 9 9 9 10 11 10 9 10 10 11 11 11 11 11 11 10 10 10 10 10 10 9 8 8 8 8 8 8 7
31 29 27 26 25 24 25 24 24 22 21 18 16 15 12 10 10 10 11 11 11 11 11 11 11 11 10 11 11 10 10 10 10 10 10 11 10 9 10 9 8 8 8 7
32 30 28 26 25 25 25 23 22 21 21 20 19 16 13 11 11 11 11 11 11 12 13 12 11 10 10 11 11 10 10 11 10 10 10 10 10 10 10 9 8 8 8 8
33 32 29 27 27 26 25 24 23 22 21 21 19 17 13 11 12 12 11 11 12 12 12 12 11 11 11 11 12 12 12 11 11 11 10 10 10 10 10 10 10 9 9 9
34 33 31 30 29 27 26 26 25 24 23 22 22 19 14 12 12 11 11 11 13 13 13 12 12 12 12 12 12 13 13 12 12 11 11 11 11 12 12 11 10 10 10 10
35 35 33 32 29 27 26 26 26 25 24 24 23 21 16 15 14 13 12 12 14 14 14 13 13 13 13 13 14 14 13 12 11 12 13 13 13 13 13 13 12 11 11 11
37 37 35 34 32 30 28 27 26 26 26 25 24 21 18 17 15 15 14 14 15 16 15 15 15 15 14 14 14 13 13 13 13 13 14 14 14 14 14 14 13 12 11 11
38 38 37 35 32 30 29 28 27 27 27 26 25 22 20 18 17 17 16 16 17 18 17 16 17 16 15 14 14 14 14 13 13 14 14 14 14 14 14 14 14 13 11 11
38 39 37 35 32 31 30 29 29 28 28 27 26 24 22 20 19 19 18 18 20 19 19 18 18 17 17 16 16 15 14 13 14 14 15 15 14 14 14 14 14 13 13 11
39 39 38 36 34 32 31 29 29 28 27 26 26 25 23 23 22 22 21 21 21 20 19 19 18 17 17 17 17 16 14 14 14 14 15 15 15 15 14 14 14 13 13 11
39 39 39 38 36 34 34 30 29 29 27 26 26 25 25 24 23 23 22 22 21 21 20 19 19 18 18 17 17 16 15 14 14 15 15 15 15 15 14 14 14 14 13 12
38 38 39 38 37 38 34 31 31 30 30 28 27 26 26 25 24 24 23 21 21 22 22 22 22 20 19 18 17 16 16 16 15 15 15 15 15 15 14 15 15 15 14 14
38 38 38 38 39 40 36 33 32 31 30 30 28 27 26 26 26 26 24 23 22 23 24 22 22 21 20 19 18 17 17 17 16 16 16 16 15 15 15 15 16 16 16 15
38 38 38 38 40 41 36 33 33 32 32 30 30 29 28 27 27 26 26 25 24 23 23 22 22 21 20 19 18 18 17 17 17 16 16 16 16 16 16 16 16 17 16 16
38 38 37 38 39 38 35 35 35 35 33 30 30 30 30 29 28 27 27 27 24 23 24 22 22 21 20 19 19 18 18 18 17 17 17 17 17 17 17 16 17 17 17 17
39 37 37 37 38 37 33 34 36 35 33 32 31 30 31 31 30 29 28 27 25 24 23 23 22 22 21 20 20 19 19 18 18 18 18 18 18 18 18 17 17 18 18 18
39 37 36 36 36 34 34 34 34 34 34 33 32 31 31 31 31 29 28 27 26 25 24 23 23 22 21 21 20 20 19 19 19 19 19 19 18 18 18 18 18 19 19 19
39 37 36 36 36 35 35 35 34 35 34 34 33 32 32 31 31 30 28 28 28 27 25 24 23 23 22 22 21 20 20 20 20 20 20 19 19 19 19 19 19 19 19 19
37 37 37 37 36 35 36 36 36 35 35 34 34 33 33 32 31 29 29 29 28 27 27 25 24 23 23 23 22 21 21 20 20 20 20 19 19 19 19 19 19 20 19 19
37 37 37 36 36 35 35 36 36 36 35 34 33 33 33 32 30 29 30 29 28 27 26 25 25 24 24 23 22 21 21 21 21 20 20 20 20 19 20 20 20 20 20 19

GEFSCGP_500_meanwind_228.txt.gz
Wind_Speed
21 20 19 16 13 10 7 5 2 1 2 4 5 7 8 9 11 12 14 14 15 16 16 16 16 16 16 16 16 15 15 14 13 11 10 9 8 7 6 5 5 3 3 2
23 22 20 18 16 13 11 8 6 3 1 1 2 4 6 8 9 10 11 12 13 14 15 15 16 16 15 15 15 14 13 13 12 11 10 10 9 7 6 5 5 4 3 3
23 23 22 21 18 16 14 11 9 7 5 2 1 2 4 5 7 8 9 10 11 12 13 13 14 15 14 14 14 14 14 13 12 11 10 10 9 8 7 6 5 5 4 4
26 25 24 22 20 17 16 14 12 10 9 6 5 3 3 4 6 8 9 10 10 10 11 12 13 14 14 13 13 14 13 12 12 11 10 9 9 8 8 7 6 6 6 5
27 26 25 23 21 20 19 17 16 14 13 11 8 6 4 4 5 6 8 9 9 9 10 10 11 12 13 14 13 13 12 12 11 12 11 9 9 9 9 8 7 6 6 7
29 27 25 25 24 23 22 20 19 18 17 14 11 9 7 6 6 6 6 7 8 9 9 9 10 11 12 12 12 12 12 12 12 11 11 10 10 10 10 9 8 8 8 7
31 29 28 27 26 26 25 23 22 21 20 17 15 13 10 8 7 7 7 7 7 8 9 8 9 10 11 11 12 12 13 13 13 12 12 11 11 11 11 10 9 9 9 9
33 31 30 29 28 27 26 25 24 23 21 18 17 16 13 10 9 8 8 7 7 7 8 8 9 10 10 11 11 12 12 13 13 13 12 12 11 12 12 11 11 11 11 10
34 32 31 30 29 29 28 27 25 25 24 21 20 17 15 13 11 9 8 8 8 8 8 8 9 10 11 11 11 12 12 13 13 12 12 12 12 11 11 11 11 12 12 12
35 34 33 33 32 31 30 28 27 26 25 23 21 19 16 14 12 11 10 9 9 8 9 9 9 10 11 11 11 12 13 13 14 14 12 12 12 11 11 12 12 13 13 13
36 36 35 34 34 32 31 30 29 27 26 24 21 18 16 15 14 13 12 11 9 10 10 10 10 11 11 12 12 12 13 13 13 14 13 12 12 12 12 13 13 13 13 13
36 36 36 36 34 33 32 31 30 29 26 24 23 19 17 16 15 14 13 11 10 10 11 11 11 11 12 12 13 13 13 14 13 13 14 14 13 13 13 14 14 14 14 13
37 37 37 36 36 35 34 32 31 30 28 26 24 21 18 17 16 15 13 11 10 10 11 11 11 11 12 13 13 14 14 15 15 14 14 15 14 14 14 14 14 14 14 13
38 39 38 37 35 34 34 33 32 30 29 27 24 21 20 18 17 16 14 13 12 12 12 12 12 12 12 13 14 15 16 16 16 15 15 15 15 15 15 15 14 14 14 13
39 39 38 37 36 35 35 34 33 32 29 28 26 24 21 20 18 17 16 15 14 14 14 14 14 14 14 15 15 16 16 16 16 16 16 16 16 16 16 16 15 15 15 14
39 39 38 38 37 36 36 35 34 33 31 29 28 26 23 21 21 19 18 16 16 16 16 16 16 15 15 15 16 16 16 16 17 17 17 16 16 17 16 16 16 16 15 15
38 39 38 38 37 37 38 36 35 34 32 30 28 26 24 23 21 20 19 18 17 17 18 18 18 18 17 17 17 17 17 17 18 18 18 17 17 17 17 17 17 17 16 17
37 37 37 37 37 39 37 36 35 35 33 30 29 27 26 24 23 22 21 20 20 20 20 20 20 20 19 19 18 18 18 18 19 19 19 18 17 18 18 18 18 18 18 17
37 37 37 37 37 38 37 36 36 35 34 31 30 28 27 25 24 23 22 22 22 21 21 21 21 20 20 20 20 19 19 19 19 20 19 19 18 18 18 19 19 19 19 18
38 38 38 38 38 38 37 36 35 34 34 31 29 27 27 27 26 24 23 23 23 22 22 23 23 22 22 21 21 21 20 20 20 20 19 19 19 19 19 19 19 19 19 19
39 39 39 38 38 37 36 36 34 35 32 30 30 29 27 27 26 24 24 24 24 24 24 24 24 24 24 23 21 21 21 21 21 20 19 19 19 19 19 20 20 20 20 19
39 40 40 39 39 38 36 35 35 33 31 30 30 30 28 27 26 26 25 25 25 25 25 26 26 25 24 24 24 22 21 21 21 20 20 20 20 20 20 21 21 20 20 20
39 39 39 39 39 37 36 36 35 33 32 31 31 30 30 28 28 28 27 27 27 27 26 27 27 26 25 26 25 24 24 23 23 21 21 21 21 21 22 22 21 21 21 20
38 38 37 37 37 37 35 34 34 33 32 31 31 31 30 30 30 29 29 29 29 27 27 28 27 27 27 27 25 24 23 22 22 22 21 21 22 22 22 22 22 22 22 22
38 37 37 37 36 36 34 33 33 33 32 32 31 32 32 31 31 30 29 29 28 29 29 29 29 27 27 25 23 23 23 22 22 21 21 21 22 22 22 22 22 22 22 22
38 38 37 37 36 35 34 33 32 32 33 32 32 32 31 32 32 32 30 29 29 28 28 28 27 27 26 25 24 23 23 22 22 21 21 22 22 22 22 22 22 23 23 23

GEFSCGP_500_meanwind_234.txt.gz
Wind_Speed
16 15 14 12 11 9 7 5 4 2 3 4 6 8 8 10 11 13 13 13 13 14 14 13 14 14 14 14 13 13 12 11 10 10 9 8 8 7 6 5 4 3 3 3
19 18 16 15 13 10 8 6 4 3 2 2 3 5 6 8 9 10 12 12 12 12 13 13 13 13 14 14 13 13 12 12 11 10 9 8 8 7 6 5 4 4 4 4
21 19 18 16 15 13 10 8 6 5 3 1 1 3 4 5 7 8 9 11 11 11 11 11 12 12 12 13 13 13 12 12 11 10 9 9 9 8 7 6 5 5 5 5
25 22 19 18 17 15 13 11 8 7 5 4 2 2 4 3 5 6 7 9 10 10 10 10 11 11 11 11 12 12 12 12 11 10 9 9 9 9 8 8 7 7 7 7
27 24 22 21 19 18 17 13 11 9 8 6 5 3 4 4 4 5 6 7 8 9 8 9 9 10 10 10 11 11 12 12 12 11 9 9 9 9 9 9 8 8 8 7
28 25 24 22 21 20 18 16 13 11 10 10 8 5 6 5 4 5 6 6 7 7 8 8 8 9 10 10 10 10 11 11 12 11 10 10 10 10 10 10 10 9 8 8
30 28 26 24 23 22 20 18 15 13 13 12 10 9 8 7 5 5 5 6 6 6 7 7 8 8 9 10 10 10 11 11 12 12 11 11 11 10 11 11 10 10 9 9
31 30 28 26 24 23 22 20 19 16 14 13 13 11 9 8 6 5 5 5 5 5 6 7 7 8 9 10 10 11 11 11 12 12 11 11 11 11 11 11 11 11 10 10
32 32 30 27 25 25 23 23 20 18 16 14 15 13 10 9 7 6 6 6 5 5 6 7 8 8 9 10 11 11 12 12 12 13 12 12 11 11 11 12 11 11 11 11
33 33 31 29 28 27 26 24 22 20 18 17 16 15 12 10 9 8 7 7 7 7 7 7 8 9 10 11 12 12 12 12 13 13 13 12 11 11 12 12 12 13 13 12
34 33 32 32 31 29 28 26 25 23 21 18 16 16 15 13 11 10 10 9 9 8 8 9 9 10 11 11 12 13 13 13 13 13 14 13 12 12 11 12 13 13 13 13
35 33 33 33 32 31 30 28 26 25 24 21 18 17 17 15 13 12 11 10 10 9 10 10 10 11 11 12 12 13 13 13 13 13 14 14 13 12 13 12 13 13 13 13
36 35 34 33 33 32 32 30 29 27 25 23 20 18 20 17 15 14 13 13 12 11 11 11 11 11 12 13 13 14 14 13 13 13 13 14 13 13 13 13 13 13 14 13
37 37 35 32 31 32 32 31 30 29 27 25 22 20 21 19 17 15 14 14 13 13 13 12 12 12 13 14 14 14 13 13 13 13 14 14 14 14 14 13 14 14 14 14
38 37 36 34 33 33 32 32 31 30 29 26 24 23 22 21 19 17 16 16 15 15 15 14 14 14 15 15 15 14 13 13 13 14 14 14 15 15 15 14 15 15 15 15
39 38 36 36 35 33 33 33 32 31 30 28 26 25 24 23 22 20 19 18 17 17 16 16 16 16 16 16 15 15 14 14 14 14 14 15 16 16 16 15 16 16 16 16
38 37 36 35 35 35 35 34 33 32 30 29 27 26 26 25 23 22 21 20 19 18 18 17 18 17 17 17 16 16 16 16 16 16 16 16 16 16 17 17 16 16 16 17
39 37 36 35 35 37 35 34 33 32 31 29 28 28 27 26 24 24 23 22 21 20 20 19 20 19 18 18 17 18 18 18 18 17 17 18 18 18 18 17 17 17 17 18
39 38 37 36 36 36 36 35 33 32 32 31 30 29 28 27 26 26 26 24 23 22 22 22 22 21 21 21 20 20 20 20 20 19 19 19 19 20 19 18 18 19 18 18
40 39 38 38 36 35 36 34 32 32 33 32 31 30 29 29 29 28 27 26 25 24 24 24 23 23 23 22 22 22 22 22 22 21 21 21 22 22 21 21 20 19 19 19
40 40 39 38 37 35 36 33 32 33 32 30 30 30 30 29 28 28 28 27 26 26 26 26 25 25 24 24 24 24 24 24 23 23 23 23 23 23 23 22 21 20 20 19
40 39 39 38 37 37 36 34 34 33 31 30 30 29 30 29 29 28 28 28 28 27 28 27 27 26 25 25 25 25 25 24 24 24 24 25 25 24 23 23 22 21 20 19
39 39 38 38 37 37 35 34 34 33 32 30 30 30 30 29 29 28 28 28 28 27 27 27 28 27 26 26 26 26 25 25 25 25 25 25 25 24 24 22 21 21 20 20
39 39 39 38 37 35 34 33 33 33 33 31 30 30 30 30 29 29 29 29 29 28 28 28 28 28 28 27 26 27 27 26 26 26 26 25 25 24 23 22 22 21 21 21
39 39 38 38 37 35 34 32 32 32 32 31 30 29 30 31 30 29 29 30 30 29 29 29 29 29 28 27 27 26 26 26 26 26 27 26 25 24 23 23 22 21 21 21
40 39 39 38 37 36 34 32 32 31 31 31 30 29 29 30 31 30 30 30 30 30 30 30 30 29 28 27 26 26 26 26 26 26 26 26 25 24 23 23 22 22 21 21

GEFSCGP_500_meanwind_240.txt.gz
Wind_Speed
12 12 11 10 9 8 6 5 3 2 2 3 5 7 10 12 13 14 15 15 16 17 17 17 16 16 16 15 15 15 15 13 13 12 11 10 9 9 7 6 6 5 5 5
15 13 12 12 11 9 9 7 5 4 4 3 4 6 8 10 12 13 14 14 15 15 16 16 16 16 16 15 15 15 14 14 14 13 12 11 10 9 9 7 7 5 5 6
17 14 13 13 12 11 10 8 7 6 5 4 5 6 8 9 11 12 12 13 14 13 14 14 14 14 14 15 15 15 15 15 14 14 14 13 11 11 10 9 8 7 6 7
19 18 17 15 15 13 12 10 9 7 6 6 5 7 8 9 9 10 11 11 12 13 13 13 13 13 13 14 14 14 14 15 14 14 15 14 13 12 11 10 9 9 8 8
21 20 20 18 17 15 13 12 9 8 7 8 6 7 9 9 10 10 11 11 10 11 12 12 12 12 12 13 14 14 15 14 14 14 14 14 13 13 12 11 11 10 10 10
22 21 20 20 18 17 15 12 10 8 8 10 7 7 8 8 8 9 9 10 10 10 11 11 11 12 12 12 13 14 14 14 14 14 15 14 13 13 13 12 12 11 11 11
24 23 23 21 19 18 17 15 13 11 10 10 8 8 9 9 9 9 9 9 9 9 9 10 10 11 11 12 13 14 14 14 14 15 15 15 14 14 14 13 13 12 12 11
25 24 24 24 22 21 19 17 15 12 10 9 8 10 9 11 11 12 10 9 9 9 8 9 10 10 10 11 12 13 14 14 15 15 15 15 14 14 14 14 13 13 13 13
24 23 23 24 23 22 20 19 16 14 12 11 11 12 12 12 13 14 11 9 9 10 9 8 9 10 10 11 12 13 13 14 15 15 15 15 15 14 14 14 13 13 14 13
25 23 23 24 24 23 21 19 18 17 17 15 12 12 13 14 14 13 12 11 11 10 10 10 10 10 10 11 12 13 14 14 15 15 16 15 15 14 14 14 14 14 14 14
29 26 23 25 26 24 23 22 21 20 18 15 13 13 13 15 15 14 14 13 13 12 10 10 10 11 11 12 13 14 15 15 15 15 16 16 15 14 14 15 14 14 14 15
31 28 26 25 25 24 24 24 22 23 23 20 17 14 13 15 15 15 16 16 15 14 12 11 12 12 13 13 14 14 16 16 15 15 16 17 16 15 15 16 15 16 15 15
34 32 29 26 25 25 25 26 25 24 22 21 17 15 15 17 17 18 18 17 16 15 15 13 13 13 13 14 14 15 16 16 16 16 16 16 16 16 16 16 16 16 17 16
37 35 33 29 24 24 25 25 25 25 23 21 19 18 18 19 20 20 20 18 18 17 15 15 14 14 15 15 15 16 17 17 17 16 17 17 16 16 16 16 17 17 17 17
39 37 35 32 26 23 24 24 25 26 25 23 19 19 21 22 22 22 21 20 19 18 16 16 16 16 16 16 17 18 18 18 17 17 18 18 17 17 17 17 17 18 18 18
40 39 37 35 31 26 25 25 25 26 26 25 23 23 23 22 23 23 23 23 21 20 18 17 17 18 18 18 18 19 19 19 19 18 18 18 18 18 18 18 18 19 19 19
39 40 39 36 32 30 31 29 27 27 26 26 25 26 26 26 24 24 25 24 23 21 21 20 19 19 19 19 19 20 20 20 20 20 19 18 18 19 19 19 19 19 19 19
40 40 39 37 34 35 32 28 27 27 28 28 27 27 27 27 27 28 27 26 24 24 23 22 21 20 20 21 21 21 21 21 21 21 20 19 19 19 20 20 20 20 20 20
40 40 40 38 36 34 31 30 29 29 31 30 28 28 28 29 29 29 28 27 26 25 25 24 23 22 22 22 22 22 22 22 22 22 21 21 20 20 20 20 21 21 21 21
40 40 39 39 36 34 30 29 28 29 32 31 30 30 30 31 31 29 29 28 28 26 26 25 25 24 23 23 23 23 24 23 23 23 23 23 22 22 21 21 22 22 22 22
40 40 39 39 37 34 29 29 30 32 32 30 30 32 32 32 32 30 30 29 29 28 27 27 26 25 25 25 25 25 25 25 24 24 24 24 24 23 23 23 23 23 23 23
39 40 40 39 37 34 32 30 32 33 31 31 31 33 33 33 32 32 32 31 31 30 29 27 27 27 27 27 26 26 26 26 26 25 24 25 25 24 25 24 24 24 23 23
37 38 38 38 39 37 36 36 35 35 33 32 32 32 31 32 32 32 32 31 31 30 29 28 28 28 28 28 28 28 27 27 27 26 26 25 25 25 26 25 25 25 24 24
37 37 39 40 41 40 39 38 37 36 34 33 32 32 32 33 33 33 32 31 32 31 30 29 29 29 29 29 29 29 29 28 28 27 26 26 26 26 26 26 25 25 24 24
37 39 40 42 41 40 40 40 40 38 35 33 33 33 33 33 33 33 33 32 32 32 31 31 31 31 31 31 30 30 29 29 28 28 28 27 27 27 27 26 26 25 25 26
38 39 40 42 42 41 42 42 40 38 36 34 33 33 33 34 33 33 33 31 31 32 31 31 31 32 32 32 31 30 30 29 29 29 28 28 28 27 26 26 26 26 26 26

GEFSCGP_500_meanwind_246.txt.gz
Wind_Speed
16 15 14 12 10 9 6 6 6 6 6 7 9 11 13 14 14 15 16 17 17 18 18 17 18 18 17 16 16 15 15 15 14 13 12 10 9 7 7 6 5 4 4 4
18 17 15 14 11 11 8 6 4 3 3 5 7 8 10 11 12 13 14 15 16 16 17 16 16 17 17 17 16 16 15 15 14 13 12 11 10 9 8 7 6 5 5 4
19 17 17 16 13 12 11 9 6 4 2 3 4 5 7 9 10 11 12 13 14 15 15 15 15 15 16 16 15 15 15 15 14 13 13 12 11 10 9 8 8 7 7 6
22 20 18 18 16 14 13 11 8 7 5 5 5 4 4 6 7 9 10 11 12 13 14 13 13 14 15 15 15 15 15 15 14 13 13 12 11 10 9 8 8 8 8 7
24 22 21 19 17 16 14 13 12 10 8 7 7 7 4 4 5 7 8 10 10 11 12 12 12 12 13 13 14 14 14 14 14 13 12 12 11 11 11 10 10 9 9 8
24 23 23 20 19 17 15 16 15 13 11 9 7 6 5 5 6 7 7 8 9 9 10 11 11 11 11 12 12 13 13 13 13 13 12 11 12 12 11 11 11 10 10 9
25 25 23 22 21 20 18 19 18 16 13 10 8 8 6 6 5 6 7 7 8 8 9 10 10 10 10 11 11 12 12 12 13 13 13 12 12 12 12 11 11 11 11 10
27 26 24 23 21 22 21 20 19 17 15 12 10 8 6 4 4 4 5 6 6 7 8 8 9 10 10 10 11 11 11 12 13 13 13 12 12 12 12 12 12 11 11 11
29 27 25 23 22 22 23 21 19 17 16 14 13 9 7 6 5 5 5 5 6 6 7 8 8 9 9 10 10 11 11 11 12 13 13 13 12 12 11 11 11 12 12 12
30 29 27 25 24 23 23 21 21 20 18 16 14 12 9 8 8 7 6 6 7 7 7 8 8 8 8 9 10 10 11 12 12 13 13 12 12 11 11 12 11 12 12 13
31 31 29 29 28 25 24 23 22 21 20 18 17 15 11 10 9 8 7 8 9 8 8 8 7 7 8 9 10 11 12 13 12 13 13 12 12 12 12 12 12 12 12 13
32 32 32 31 28 27 25 25 24 23 22 21 20 17 15 13 11 10 9 9 9 10 9 9 8 8 9 9 9 11 12 13 13 13 13 13 13 13 13 12 12 12 12 13
34 35 34 33 31 29 28 27 26 24 23 23 23 21 17 15 13 11 11 11 11 11 11 11 10 9 10 10 10 10 12 13 14 14 14 13 13 13 13 13 13 12 12 13
35 36 36 36 34 31 29 27 27 26 25 24 24 23 19 16 13 13 13 13 13 12 13 13 12 11 10 11 11 12 12 14 15 15 15 14 14 14 14 14 14 14 14 14
36 37 36 35 34 33 31 28 27 27 27 26 26 25 22 19 18 16 16 16 16 14 14 14 13 13 12 12 13 14 14 15 16 16 16 15 15 15 15 14 14 14 14 15
39 38 37 36 35 35 33 31 29 28 28 27 26 26 24 23 21 20 19 18 18 17 16 16 15 14 14 14 15 16 16 17 17 17 17 17 16 16 16 15 15 15 15 15
41 40 40 38 36 36 37 33 32 31 30 28 28 26 26 25 23 21 21 20 20 20 19 18 18 17 16 16 17 17 18 18 18 18 19 19 18 18 17 17 16 16 16 16
42 42 41 40 38 40 38 36 35 33 32 30 28 27 26 24 23 24 24 22 22 23 22 21 20 19 19 18 18 18 19 20 20 19 20 20 20 19 18 18 18 18 18 17
41 41 41 41 41 40 38 37 37 36 34 33 31 29 28 25 25 25 26 26 25 24 24 23 23 22 21 21 20 20 21 21 21 20 20 21 21 19 19 19 19 19 19 19
41 41 41 41 42 41 38 38 38 38 37 35 33 31 31 29 27 27 27 27 27 26 25 25 24 23 23 22 22 22 22 22 22 22 21 21 21 20 20 20 20 20 19 19
41 41 42 42 42 41 37 36 38 39 37 35 34 33 32 31 29 28 29 28 27 27 26 26 25 25 24 24 24 24 24 23 23 23 22 21 20 20 20 20 21 21 20 20
42 42 42 42 42 41 38 38 38 38 36 35 35 33 32 30 30 29 29 29 29 29 28 27 27 26 27 26 26 25 25 25 24 24 23 22 22 21 21 21 22 22 22 21
42 42 41 42 41 38 38 38 38 38 38 36 36 34 33 32 31 30 30 30 30 30 30 29 29 29 29 29 28 27 27 27 26 26 25 24 24 23 23 23 24 24 23 23
42 41 40 41 41 39 38 37 37 37 37 37 36 35 34 33 32 31 31 31 30 30 30 31 31 30 30 30 30 29 28 28 28 28 27 26 26 26 25 25 25 25 25 24
42 42 41 40 40 38 38 38 37 36 36 36 35 34 34 34 34 33 33 33 32 31 31 31 31 31 31 31 30 29 29 29 29 29 29 28 28 28 27 27 26 26 25 25
41 41 41 40 39 38 37 37 36 35 35 35 35 35 35 35 34 35 35 34 34 33 32 32 32 31 31 30 30 30 30 29 30 30 30 30 29 29 28 28 27 27 27 26

GEFSCGP_500_meanwind_252.txt.gz
Wind_Speed
17 16 13 11 9 6 5 3 2 3 5 7 9 10 10 10 11 12 13 14 14 16 16 16 15 15 15 14 14 13 12 11 10 10 10 9 8 7 6 6 5 5 5 5
20 17 15 13 11 9 7 5 4 2 2 3 5 7 8 8 9 10 11 12 13 14 15 15 15 15 14 14 14 13 12 12 11 10 10 10 9 8 7 7 6 6 7 7
21 19 18 16 14 11 9 8 6 4 2 0 2 4 6 7 7 8 9 10 11 12 13 14 14 14 14 14 14 13 12 12 11 11 10 10 9 9 9 8 8 8 8 8
24 22 21 19 17 14 12 11 9 6 5 3 3 2 3 5 6 6 7 8 9 10 11 12 13 12 12 12 13 13 12 12 11 11 11 10 10 9 9 9 9 9 8 9
26 24 23 21 19 17 14 14 12 10 8 7 5 4 2 3 4 4 5 6 7 9 10 10 10 11 11 12 12 12 12 12 12 11 11 11 10 10 9 9 10 10 10 9
28 26 25 23 22 20 17 16 15 13 12 10 7 6 3 3 4 3 3 5 5 7 8 9 9 10 10 11 12 12 12 12 12 12 12 11 10 10 10 10 10 11 10 10
29 28 27 25 24 23 21 19 18 16 15 12 10 8 5 3 3 3 2 3 3 5 6 7 8 8 9 9 10 10 11 12 12 12 12 12 11 11 11 11 11 11 11 11
31 29 28 26 25 24 22 20 19 18 16 14 13 10 8 6 5 4 2 1 2 3 5 5 6 6 7 8 9 9 9 11 12 12 12 12 11 12 12 12 12 12 12 12
31 29 28 27 26 25 24 23 20 19 19 18 16 12 11 9 7 5 4 3 3 4 4 3 4 5 5 7 8 8 9 10 12 13 13 13 11 11 11 12 12 12 12 12
32 31 29 28 27 27 26 24 22 21 20 20 18 15 12 10 9 8 7 5 4 4 4 4 4 5 5 6 8 8 8 9 11 13 14 13 12 12 12 12 12 12 12 12
33 33 31 30 30 28 27 26 24 23 22 21 19 16 14 12 11 10 9 7 6 4 5 5 5 5 6 7 8 8 9 10 11 12 13 13 13 13 13 12 13 13 13 13
34 34 33 32 31 30 29 28 26 26 24 22 20 17 15 14 13 12 11 10 8 7 6 6 7 7 8 8 9 9 10 11 12 13 13 13 13 13 13 13 13 14 14 14
35 36 35 35 34 33 32 30 28 27 26 24 23 19 16 15 15 13 12 12 10 9 9 8 8 9 10 10 10 10 11 12 13 14 14 14 14 14 14 14 14 15 15 15
37 37 37 36 35 33 33 31 30 29 28 26 25 22 19 17 16 15 14 14 13 11 11 11 10 11 12 12 12 11 12 13 14 15 15 15 15 15 16 15 15 15 16 16
37 37 37 36 35 34 33 32 31 31 29 28 26 23 21 19 18 17 16 15 15 13 13 12 12 12 13 13 13 13 13 14 15 16 17 16 16 17 17 16 16 16 17 17
38 38 37 38 37 36 35 34 34 33 31 29 27 25 23 22 20 19 18 17 17 16 15 15 14 14 14 15 15 15 15 16 16 17 18 17 17 18 17 18 18 18 18 18
38 38 38 38 38 37 37 36 35 35 33 31 28 25 25 24 22 21 20 19 19 18 18 17 17 17 16 16 16 17 17 17 18 19 19 19 19 19 19 19 19 20 20 20
39 38 37 37 37 39 38 35 35 34 33 32 30 28 27 26 24 23 22 22 21 20 20 20 20 19 17 18 18 18 19 19 19 20 20 20 20 20 20 21 21 21 22 21
40 40 39 39 38 39 38 37 36 36 35 33 31 30 29 28 27 25 24 24 24 23 23 22 21 21 20 20 20 20 21 21 21 21 21 21 21 22 22 22 22 22 22 22
42 41 41 41 40 40 38 37 38 37 37 34 32 31 30 30 29 27 26 26 26 26 25 24 24 24 23 23 23 23 23 23 23 22 22 22 22 22 22 23 23 23 23 23
43 42 42 41 41 40 39 37 37 38 37 35 34 32 32 31 30 29 29 28 28 27 26 26 27 27 26 26 26 26 25 24 23 23 23 23 23 23 24 24 24 24 24 24
44 43 42 41 41 40 39 38 37 37 36 35 35 33 32 32 31 31 31 30 29 28 28 29 29 29 28 27 27 27 27 26 26 25 25 25 25 25 25 25 25 26 25 25
43 42 42 42 41 39 38 38 37 36 36 36 36 36 34 33 32 32 31 30 29 30 30 31 31 30 29 29 29 29 29 29 28 27 26 26 27 27 27 27 27 27 27 27
42 41 42 41 40 39 38 38 38 37 36 35 35 36 36 34 33 32 32 30 30 31 32 33 31 30 30 30 30 30 31 30 30 29 29 29 29 29 29 29 29 29 29 29
41 41 42 42 40 39 38 38 38 37 36 35 35 34 34 34 33 31 31 30 30 29 30 31 32 32 32 32 32 32 32 32 32 32 32 31 31 32 32 32 32 31 31 31
41 41 41 41 41 40 38 38 38 38 38 37 36 35 33 32 32 32 32 31 31 31 31 31 32 33 34 34 33 34 34 34 34 34 33 33 33 33 34 34 34 33 33 32

GEFSCGP_500_meanwind_258.txt.gz
Wind_Speed
13 11 11 9 8 7 5 3 2 2 4 6 7 8 9 10 10 11 12 12 12 12 12 12 11 11 11 11 11 10 10 9 9 9 8 8 8 8 7 6 6 6 6 6
16 14 12 11 10 8 6 5 3 1 1 3 4 6 7 7 8 9 10 11 11 10 11 11 11 11 10 10 10 10 9 9 9 9 8 8 7 7 7 7 7 7 7 7
18 16 15 14 12 9 8 7 5 3 1 1 2 4 4 5 6 7 8 8 9 9 10 10 10 10 10 10 9 9 9 9 9 8 8 8 7 7 8 8 8 8 8 8
22 21 19 16 14 11 10 9 8 5 3 2 1 0 2 3 4 5 5 6 7 8 9 9 9 9 9 9 9 9 9 9 9 9 8 8 8 8 8 8 8 9 8 8
25 23 21 19 17 15 13 11 9 8 6 5 3 2 3 2 2 3 4 4 5 6 7 8 8 8 8 9 9 9 8 9 9 9 9 9 9 9 9 9 9 9 9 9
27 25 23 21 19 18 16 14 11 9 8 8 6 5 4 3 1 2 3 3 3 4 5 6 6 7 7 8 8 8 8 8 9 9 9 9 9 9 9 10 10 10 9 9
29 27 25 24 23 21 19 16 13 10 10 10 9 8 6 5 3 2 2 2 2 2 3 4 4 5 6 6 7 8 7 7 8 8 9 9 9 10 10 10 10 10 10 10
29 29 27 26 25 23 21 19 16 14 12 11 11 10 8 6 4 3 3 3 3 2 2 2 3 3 5 6 6 6 6 7 7 8 9 9 9 10 10 10 10 10 10 10
29 29 28 27 26 25 23 21 19 16 14 12 12 11 9 8 6 5 5 5 4 4 3 3 3 3 4 5 6 6 6 7 7 8 9 9 10 11 11 10 10 10 10 10
29 29 29 28 28 27 25 22 21 19 16 14 13 12 11 9 8 7 7 6 6 5 4 4 4 4 5 5 6 6 7 7 8 9 10 10 11 12 11 11 10 10 11 11
30 29 29 29 30 29 27 25 23 21 18 15 14 14 13 12 10 9 8 8 7 6 6 6 6 6 6 6 6 7 7 8 8 9 10 11 12 12 12 11 11 11 11 12
32 30 29 30 30 30 29 27 25 23 22 19 16 15 15 14 12 11 10 9 8 8 7 8 7 7 7 7 8 8 8 8 9 9 10 11 12 12 12 12 12 12 12 12
33 32 30 29 30 31 31 29 27 25 23 21 18 16 16 15 14 13 12 11 11 10 9 9 9 9 9 9 9 9 9 9 9 9 10 12 12 13 13 13 13 12 13 13
35 34 32 30 30 30 31 31 30 28 26 24 22 19 18 17 16 14 13 12 12 12 11 11 11 11 11 11 10 11 11 11 11 11 12 13 13 13 14 14 14 13 14 14
36 35 33 32 31 30 30 30 30 30 28 25 23 22 20 19 17 16 16 15 14 13 13 12 12 11 11 11 11 12 12 12 12 13 13 13 14 15 15 15 14 14 15 15
37 36 34 33 32 32 32 32 31 31 29 27 26 24 21 20 20 18 18 17 16 15 14 13 14 13 13 13 13 13 13 14 14 14 15 15 16 16 16 16 16 16 16 16
38 37 36 34 33 32 34 33 33 32 30 29 27 25 23 22 22 21 19 18 17 16 16 16 16 16 15 15 15 15 15 15 16 16 16 17 17 17 17 18 18 18 18 18
38 38 37 35 35 35 35 33 33 32 31 30 29 27 25 24 23 23 22 21 21 20 20 19 19 18 18 17 18 18 18 18 19 18 18 19 19 20 20 20 20 20 20 20
38 37 37 36 35 36 36 35 34 33 33 31 30 29 27 26 25 25 24 23 24 23 22 22 21 21 21 20 20 21 20 20 21 21 21 21 22 22 22 22 22 22 22 21
38 38 38 38 36 36 36 35 34 34 35 32 31 30 29 28 27 27 25 25 25 24 25 24 24 24 23 23 23 22 22 23 23 23 23 23 24 24 24 24 23 23 24 24
39 39 39 38 37 36 36 36 35 36 35 33 32 31 30 30 29 28 27 27 26 25 25 25 24 25 25 25 25 24 24 25 25 25 26 26 26 26 26 26 26 26 26 26
39 39 39 39 39 38 37 37 37 36 35 34 33 32 31 30 30 29 28 27 27 27 27 26 25 26 26 26 26 27 27 28 28 28 28 29 29 28 28 28 27 28 27 28
41 40 40 41 40 39 38 38 37 37 36 35 34 33 33 32 31 30 28 28 28 28 28 28 28 28 28 29 29 30 30 30 30 30 31 31 31 30 30 29 29 29 29 29
41 41 41 41 41 40 39 38 37 36 36 36 36 35 34 33 32 31 30 30 29 30 30 30 30 30 30 30 31 31 31 32 32 32 32 32 32 31 31 31 32 32 31 31
40 41 41 40 40 39 38 37 37 37 36 36 37 36 35 34 33 32 32 31 31 31 31 31 31 30 30 30 31 32 33 33 33 33 33 33 33 32 32 32 33 33 33 33
38 38 38 39 40 39 38 36 36 36 35 35 36 36 35 34 33 33 33 33 33 32 32 32 31 32 31 31 31 33 34 35 35 34 34 34 34 34 34 34 34 35 35 35

GEFSCGP_500_meanwind_264.txt.gz
Wind_Speed
9 10 8 6 5 4 4 4 3 2 1 3 6 8 10 10 11 11 10 10 11 11 11 11 11 11 10 10 9 9 9 9 8 8 9 9 9 9 8 8 8 8 8 8
13 13 10 8 8 9 8 6 4 2 2 3 5 7 9 9 9 10 10 9 9 10 10 10 10 10 9 9 9 9 9 9 9 8 9 9 9 9 9 8 8 8 9 9
15 14 12 10 9 10 9 7 6 4 5 6 5 5 7 8 8 8 8 8 8 8 9 9 9 10 9 8 8 8 8 8 8 8 9 9 9 9 9 9 9 9 10 10
18 17 15 13 12 11 10 9 7 6 6 7 7 6 6 8 8 7 7 7 7 7 7 8 8 9 9 8 8 8 8 8 9 9 9 9 9 9 9 9 9 9 10 10
21 19 16 15 14 14 13 11 9 8 8 9 8 7 9 7 7 7 7 7 6 6 7 7 8 8 8 8 9 9 8 8 9 9 9 9 10 10 10 9 9 9 10 10
22 21 19 18 15 15 13 12 12 11 10 10 8 7 8 8 8 7 7 6 5 5 6 7 6 7 7 8 8 9 9 8 8 8 9 9 10 10 10 10 9 9 9 9
23 23 21 19 18 17 16 14 12 13 13 11 9 10 11 10 10 8 7 5 4 4 5 6 6 6 6 7 8 8 8 8 8 8 9 9 10 10 10 10 10 10 10 10
24 24 23 22 21 20 19 17 15 13 11 10 11 12 12 12 10 8 8 6 5 5 5 5 6 6 5 6 7 8 8 9 9 9 10 10 10 11 11 11 10 11 11 10
24 24 23 23 22 20 20 19 17 16 15 14 15 13 11 12 11 8 8 7 6 6 6 6 6 6 6 6 7 7 8 9 10 10 10 10 11 11 11 11 11 11 11 11
25 24 23 22 23 22 21 20 19 18 16 16 15 13 13 15 14 10 9 10 8 7 7 7 7 7 7 7 8 8 9 9 10 10 11 11 12 12 11 11 12 12 11 11
26 25 23 23 23 22 22 21 20 19 18 17 16 14 14 14 14 12 10 11 9 9 9 9 8 8 8 8 9 9 10 10 11 11 11 12 12 12 12 12 12 12 12 11
27 25 24 24 24 22 22 23 21 21 21 21 19 16 15 15 14 13 12 11 12 11 11 11 10 9 8 9 10 11 11 11 11 11 11 12 12 12 12 13 14 14 13 13
30 29 26 25 25 23 23 23 23 22 22 21 20 18 15 15 13 14 14 13 13 13 13 12 11 10 10 11 11 12 12 12 12 12 12 12 14 14 14 14 14 14 14 15
32 31 29 26 24 22 23 23 23 23 24 22 21 19 17 16 16 16 16 15 15 15 14 14 14 13 13 13 13 14 13 12 13 14 14 14 14 15 15 15 15 16 16 17
33 33 31 28 25 24 24 24 24 25 24 23 21 21 19 18 17 17 17 16 16 16 16 16 16 15 15 14 14 15 14 14 14 14 14 14 15 15 16 16 17 17 18 18
35 34 32 31 28 27 27 26 26 26 25 24 23 23 22 20 20 20 20 19 18 18 18 17 17 17 17 16 17 16 16 16 16 16 15 16 16 17 18 18 19 19 20 20
36 36 34 33 30 29 30 27 26 25 25 25 26 26 23 21 21 23 24 22 21 21 20 19 18 17 17 17 18 18 18 18 18 18 18 18 18 19 20 20 21 21 22 22
36 37 36 33 32 34 32 28 27 27 27 27 28 26 23 22 22 23 25 25 25 23 22 21 20 20 19 19 19 20 20 20 21 21 21 21 21 22 22 23 23 24 24 23
35 36 36 34 34 33 32 29 29 30 29 29 29 28 26 26 26 26 25 26 26 24 23 22 22 22 21 21 20 21 22 22 22 22 23 23 23 24 24 25 25 26 25 25
36 36 37 36 36 35 34 30 28 30 32 31 31 31 31 30 29 28 27 27 27 26 24 24 24 23 23 23 22 23 23 24 24 24 25 25 25 26 27 27 27 28 28 27
37 37 38 38 37 36 33 31 29 31 34 34 34 34 34 32 31 30 30 29 28 27 26 25 25 24 25 25 23 23 25 25 26 26 27 27 27 27 28 29 30 30 29 28
35 36 37 37 36 36 33 31 33 34 33 33 34 34 34 33 32 32 32 30 29 27 27 26 26 26 26 26 25 25 25 26 26 27 27 28 28 29 30 31 31 31 31 31
34 35 34 36 36 36 34 34 35 34 35 35 35 35 33 34 34 33 33 32 30 29 28 27 27 27 26 26 26 26 26 26 27 28 27 28 29 30 31 31 32 33 32 32
35 35 35 37 37 37 36 36 35 35 35 36 37 36 34 35 35 34 34 32 30 30 30 29 29 28 27 27 28 27 27 27 28 29 29 29 29 30 31 32 33 33 32 32
37 38 38 38 38 37 37 37 36 36 35 36 37 37 36 35 35 35 35 33 31 31 31 31 30 30 29 29 28 29 29 30 29 29 30 30 31 32 33 33 32 32 33 33
38 39 40 39 39 38 38 37 36 37 37 36 35 36 37 37 36 35 35 34 33 33 32 31 32 31 31 31 31 32 32 31 31 31 31 32 32 33 34 33 33 33 34 34

GEFSCGP_500_meanwind_270.txt.gz
Wind_Speed
14 13 10 7 5 4 2 1 2 4 5 7 8 9 10 10 10 11 12 12 12 12 12 12 12 11 11 11 11 11 11 11 10 10 10 9 8 8 8 8 8 8 7 7
15 13 10 9 9 8 6 3 1 2 2 4 7 7 8 8 9 9 10 10 10 10 10 11 11 11 11 11 10 10 10 10 9 9 9 9 9 8 7 7 7 8 8 7
17 14 13 11 11 11 9 7 3 2 1 3 5 5 5 7 7 8 8 9 9 9 9 9 9 10 10 10 10 10 10 9 9 9 9 9 9 8 8 7 7 7 7 7
19 17 16 14 12 12 12 10 7 5 4 4 5 5 3 4 5 6 6 7 8 8 8 9 9 9 9 9 9 9 9 9 9 8 8 8 8 8 7 7 7 7 7 6
20 19 18 16 14 14 14 13 12 11 9 7 7 7 4 3 5 5 4 5 6 6 7 7 7 7 8 8 8 8 9 8 8 8 8 8 8 8 7 7 7 7 7 6
21 21 21 18 17 17 17 16 15 14 12 10 8 9 6 4 4 5 4 4 3 4 4 5 6 6 6 6 7 7 7 7 7 7 7 8 8 8 7 7 7 7 7 7
22 23 22 20 19 19 18 18 17 17 15 12 11 11 8 5 5 6 5 4 3 2 3 4 5 5 5 5 6 6 6 7 7 7 7 7 7 8 7 8 7 7 7 7
23 23 23 21 19 19 18 19 18 17 15 13 14 14 9 6 6 6 5 4 4 3 2 3 4 4 5 6 7 6 6 6 7 7 7 6 7 8 7 8 8 8 7 7
23 23 23 23 21 20 20 19 18 18 17 17 16 14 11 8 7 7 5 5 5 4 2 3 3 4 5 6 6 7 7 7 7 7 7 6 7 8 7 9 9 9 8 7
22 23 24 23 23 23 23 20 18 20 20 19 17 16 13 11 8 8 7 5 4 3 4 3 4 4 5 5 6 7 8 8 8 9 9 8 7 7 8 9 9 9 9 9
23 24 25 26 25 24 24 22 20 20 19 18 18 17 13 12 9 8 8 7 5 5 4 4 5 5 6 7 7 8 8 9 9 10 10 10 9 9 10 10 10 10 10 10
25 24 25 26 25 25 24 23 22 21 19 17 18 17 14 13 11 10 9 9 8 6 5 5 5 6 7 7 8 9 10 11 11 11 11 11 10 10 11 11 11 11 11 11
24 27 26 26 27 27 26 25 23 22 21 20 18 16 15 14 13 11 10 10 10 9 7 6 7 7 8 8 9 10 11 12 12 12 12 11 11 11 11 12 12 12 11 12
25 27 27 27 26 27 28 26 25 25 25 23 20 18 17 15 14 13 12 11 11 11 10 9 10 10 10 10 11 11 12 12 13 13 12 12 11 11 12 13 13 12 13 13
28 29 29 28 28 27 28 29 28 26 26 25 22 20 18 16 15 14 14 15 14 14 13 12 12 12 12 13 13 13 13 13 13 14 13 12 12 12 13 13 13 13 14 15
31 32 32 31 31 30 29 29 28 27 27 26 24 22 19 19 18 17 17 16 17 17 16 15 15 15 15 14 14 14 14 15 15 15 14 14 14 14 14 14 14 15 16 16
34 34 33 33 33 32 31 30 29 28 27 26 26 24 22 21 21 20 19 19 20 19 17 17 17 17 16 15 15 16 16 16 17 17 16 15 15 15 15 16 17 17 17 18
35 35 34 35 34 35 32 29 30 30 29 27 27 26 24 23 21 21 21 20 21 21 21 20 19 18 17 17 17 17 17 17 17 17 17 16 16 16 16 17 18 19 20 20
36 37 37 37 36 35 33 31 29 30 31 30 29 28 26 24 24 23 23 23 23 22 21 21 20 20 19 19 19 20 19 19 18 17 17 18 18 18 18 19 20 21 21 22
37 39 38 38 38 37 34 32 31 31 32 30 29 28 27 26 26 25 25 24 24 23 22 23 22 21 21 21 21 21 20 20 20 19 20 20 21 21 21 21 22 22 23 23
38 39 39 38 37 36 34 33 32 33 32 30 30 29 29 29 28 27 27 26 25 26 25 24 23 23 22 22 22 21 21 21 21 21 21 22 22 22 23 23 24 25 25 25
37 39 39 38 37 35 32 33 34 35 33 31 31 31 31 30 30 30 29 29 28 27 26 26 25 24 24 24 24 23 22 22 22 22 22 22 23 24 24 25 26 26 26 27
37 39 39 39 37 36 35 34 34 34 34 33 32 32 32 31 32 31 31 29 28 28 28 27 26 25 25 25 25 24 24 24 24 24 24 24 25 25 25 26 26 27 27 28
37 37 38 39 40 38 37 36 36 34 34 34 34 33 32 33 33 32 30 29 29 29 29 28 27 26 26 26 26 25 26 26 26 27 26 26 26 26 27 27 27 27 27 27
39 39 39 38 39 39 38 36 36 37 36 34 33 33 32 32 32 33 32 30 31 31 31 30 28 27 27 27 28 27 27 28 28 28 28 27 27 27 27 27 26 27 27 28
37 39 40 39 38 38 38 36 36 36 36 35 34 34 33 33 33 33 32 31 32 32 31 31 30 30 29 29 29 29 30 30 29 29 29 28 28 27 27 27 27 27 28 29

GEFSCGP_500_meanwind_276.txt.gz
Wind_Speed
13 11 9 8 7 5 3 1 1 3 3 5 6 7 7 7 7 8 9 9 9 9 9 9 9 9 9 9 9 8 8 8 8 8 7 7 8 8 8 7 7 8 7 7
15 13 11 10 9 7 5 3 1 0 1 2 3 4 5 5 5 5 6 6 7 8 8 8 8 8 8 8 7 7 7 7 7 7 7 7 8 8 7 7 7 7 7 6
17 15 14 13 12 10 8 6 4 3 3 2 2 3 3 3 3 4 4 4 4 6 6 7 7 6 6 6 7 7 7 7 6 6 6 7 7 7 7 7 6 6 6 5
20 18 17 16 15 13 11 9 8 6 5 5 4 3 2 2 2 2 2 3 4 3 4 5 5 5 5 5 5 6 6 6 6 6 5 5 6 6 6 6 6 5 5 6
21 21 20 19 16 15 13 13 11 9 8 8 7 5 4 3 2 1 2 2 2 2 3 3 3 4 4 4 5 5 5 5 5 5 5 5 5 5 5 5 6 6 6 6
22 22 22 21 19 18 17 15 14 13 12 11 9 8 5 4 2 2 2 1 2 2 2 2 3 4 4 4 5 5 6 5 4 4 4 4 4 5 5 5 6 6 6 7
24 23 23 22 21 20 19 18 17 16 15 14 12 11 8 5 4 3 3 2 3 3 2 2 2 3 3 3 4 5 5 5 4 4 4 5 5 5 6 6 7 7 7 8
24 24 24 23 22 22 21 20 20 19 18 16 15 14 10 7 5 5 5 4 5 5 3 2 2 2 3 3 3 4 5 5 5 5 5 6 7 7 8 8 8 8 9 9
25 23 23 23 23 23 23 22 21 21 20 19 17 15 12 9 7 7 7 6 5 5 5 4 4 4 4 3 4 4 5 5 5 5 6 7 7 8 8 9 10 10 9 10
25 24 23 22 23 24 24 23 24 23 22 21 19 16 13 10 9 9 9 8 6 6 6 6 5 5 5 5 5 5 5 6 6 6 6 7 8 8 8 9 11 10 10 10
25 24 23 22 23 24 24 24 25 24 23 22 20 17 14 12 10 10 10 10 8 8 8 7 7 7 7 7 7 6 6 7 7 7 7 8 8 8 9 10 11 11 11 11
26 25 24 23 23 23 25 25 24 25 24 23 22 19 16 14 12 11 11 11 10 10 10 9 8 8 8 8 8 8 8 8 8 8 9 9 9 10 11 12 12 12 12 12
25 26 25 24 24 24 25 25 25 25 24 24 24 21 18 17 15 13 13 12 12 11 11 10 9 9 9 10 10 9 9 10 9 9 10 10 10 11 12 12 13 13 13 13
27 27 27 25 25 25 26 26 26 26 26 25 24 22 19 19 17 15 14 13 12 12 12 12 11 11 11 12 12 11 11 11 11 11 12 12 12 13 13 13 14 14 14 14
28 28 28 27 26 26 26 26 27 26 26 25 24 24 21 21 19 17 16 15 14 14 13 13 13 13 13 13 13 13 13 12 12 13 13 14 14 14 14 15 15 15 15 15
29 29 28 28 28 27 27 27 27 27 27 25 25 23 22 22 20 19 18 18 17 15 15 16 15 14 14 14 15 14 14 14 14 14 15 15 15 15 15 15 16 16 16 16
30 29 29 29 29 29 29 28 28 27 27 27 25 24 23 23 22 20 20 20 19 18 17 17 16 16 16 16 16 16 16 16 16 16 16 16 16 16 16 16 17 17 17 18
32 31 30 29 30 32 30 30 30 29 29 28 27 25 25 25 24 23 21 21 20 20 19 18 18 19 19 19 18 18 18 17 17 17 17 17 17 17 17 18 18 18 19 19
34 33 32 32 32 32 32 31 31 31 30 29 29 27 26 25 25 24 22 21 21 21 22 21 20 20 20 21 21 20 20 19 19 18 18 18 19 19 19 19 20 20 20 21
35 35 35 34 34 33 32 31 32 32 32 31 30 28 27 26 26 24 23 23 22 22 22 22 22 21 21 21 21 22 20 21 21 21 20 20 20 20 20 21 21 22 22 23
35 35 35 35 35 34 33 31 32 32 31 31 31 29 29 27 26 25 26 25 24 24 24 25 25 24 23 23 22 22 21 21 21 22 22 22 22 22 22 23 24 24 24 25
35 36 36 36 36 34 33 32 33 32 32 32 31 30 30 29 27 27 27 27 27 26 26 27 26 26 25 25 24 23 23 23 23 23 23 23 23 23 23 24 25 26 26 26
36 36 36 37 36 35 34 33 33 33 33 33 32 32 31 31 30 29 29 28 27 27 28 27 27 27 27 26 25 25 24 25 25 25 24 24 25 24 25 26 26 26 27 27
37 36 37 38 36 35 35 34 34 34 34 34 34 34 34 33 33 32 31 30 29 29 28 28 28 29 29 28 27 26 26 26 27 26 25 26 26 26 27 26 26 27 27 27
37 38 38 38 37 36 37 36 36 35 34 35 35 35 34 34 34 33 31 30 30 30 29 29 28 28 28 26 26 28 28 28 28 27 26 27 27 27 28 27 27 28 28 28
35 36 37 38 39 39 37 36 36 36 35 35 34 34 34 34 34 34 33 32 31 30 29 29 28 28 28 27 27 28 28 29 29 28 28 28 28 28 29 28 28 28 29 29

GEFSCGP_500_meanwind_282.txt.gz
Wind_Speed
11 9 7 6 6 4 3 1 0 1 1 3 4 4 5 6 5 5 5 6 7 7 7 6 6 6 6 6 6 6 5 5 4 5 5 5 5 5 4 4 4 5 5 5
12 12 11 9 7 5 4 2 1 1 0 2 2 2 3 3 3 3 3 4 5 5 5 5 5 5 5 5 5 6 5 4 4 4 4 4 4 4 4 4 4 4 4 4
15 14 13 11 9 7 5 4 3 3 1 0 1 2 2 2 1 2 2 3 3 3 4 4 4 4 4 4 5 5 5 4 4 3 3 3 3 3 4 4 4 4 4 4
18 17 15 13 11 9 8 7 6 4 2 3 1 1 2 1 0 1 1 1 2 2 2 3 3 3 3 4 4 4 5 5 4 3 3 3 3 3 3 3 3 4 4 5
20 18 17 15 13 12 11 10 9 7 5 4 4 2 3 2 2 1 0 0 0 1 1 2 2 3 3 3 3 4 4 4 3 3 3 3 4 3 3 4 4 5 5 6
21 20 19 17 15 14 12 11 11 9 8 8 7 5 4 3 3 2 2 2 2 2 2 3 3 4 4 4 4 4 3 3 3 4 4 5 4 4 4 5 5 6 6 7
22 21 21 20 18 16 14 12 11 11 11 11 9 8 6 5 4 4 4 4 4 4 4 4 5 4 4 5 4 4 4 4 4 5 5 5 5 5 5 6 6 7 7 8
22 22 21 21 20 19 17 15 14 13 12 12 11 11 8 7 6 5 5 5 6 6 6 6 6 5 5 5 5 5 5 5 5 5 6 5 6 6 6 7 7 7 8 9
22 23 22 21 21 21 20 19 16 15 14 13 13 13 10 9 8 7 7 8 7 8 8 8 7 7 7 7 7 7 6 6 6 6 6 6 6 6 7 7 8 8 9 9
23 23 23 22 21 22 22 21 18 18 17 16 16 14 13 11 10 9 9 9 9 10 10 10 9 9 9 8 8 8 8 7 7 7 8 7 7 7 7 8 8 9 9 10
23 23 23 22 22 22 22 21 21 19 19 17 17 17 14 13 12 11 11 10 11 11 11 11 11 11 10 9 9 9 9 9 9 9 9 9 9 9 9 9 9 10 10 11
23 23 23 23 22 22 22 21 20 20 19 19 18 18 16 15 14 13 13 12 12 12 12 12 12 12 11 10 10 10 10 10 10 10 10 10 10 10 10 10 11 11 11 12
24 24 23 22 22 23 23 22 21 20 19 19 18 17 16 16 15 15 15 14 14 13 12 13 13 12 12 12 11 12 12 12 12 11 11 10 10 10 11 11 11 12 12 13
26 25 24 22 22 23 23 23 22 21 20 19 19 18 19 17 16 15 15 15 15 14 14 14 13 13 13 13 13 13 13 13 13 13 12 12 12 12 11 11 12 13 14 14
26 27 26 26 26 25 25 25 24 23 22 20 19 20 20 19 17 17 17 17 16 16 15 15 14 14 14 14 14 14 14 14 14 14 14 14 13 13 12 13 13 14 16 16
27 28 27 27 27 27 26 26 25 25 24 22 21 21 21 20 18 18 18 17 17 16 16 16 16 16 16 15 16 15 15 16 16 16 16 16 15 14 14 15 15 16 17 18
28 28 27 27 27 26 27 26 26 26 25 23 23 22 21 20 20 19 19 19 18 18 17 17 17 17 17 17 17 17 17 18 18 17 17 17 17 17 16 17 17 18 19 19
29 28 28 27 27 28 27 26 26 26 25 25 26 25 23 22 21 20 20 20 20 19 19 19 19 18 19 19 18 18 18 18 18 18 18 18 18 18 19 19 19 20 20 20
30 30 29 28 28 27 28 27 25 25 25 26 26 26 25 24 23 23 22 21 21 20 20 20 20 20 21 20 20 20 20 19 20 19 19 19 20 20 21 21 21 21 20 21
31 31 30 30 29 28 28 27 26 26 27 26 27 26 26 25 25 24 23 22 22 22 22 22 22 22 23 23 22 22 22 21 21 21 21 21 21 22 22 21 21 21 22 22
32 31 32 31 31 30 30 28 27 28 28 27 27 27 27 26 26 25 24 24 24 24 24 24 24 24 25 25 24 23 23 22 22 22 23 23 23 23 23 23 23 23 23 24
33 32 33 32 31 31 30 28 29 29 29 28 28 28 27 27 27 27 26 26 26 26 27 26 26 26 26 26 26 26 25 24 24 24 24 24 25 25 24 24 24 24 24 25
33 33 33 34 34 32 31 29 28 28 28 29 28 28 28 28 28 29 29 28 28 28 28 28 28 29 29 28 28 27 26 26 25 25 25 25 25 26 25 25 25 25 26 26
33 34 34 35 34 33 32 31 30 30 29 29 29 28 29 30 30 31 31 30 29 29 29 29 29 30 31 30 29 29 28 27 27 26 26 26 26 26 26 27 26 26 26 27
33 34 35 35 35 34 33 33 32 31 30 29 29 29 29 29 30 30 30 30 30 30 30 30 29 29 29 29 29 29 28 28 28 27 26 26 26 26 26 27 27 27 28 28
33 34 35 35 35 35 34 34 33 33 32 31 31 31 30 30 31 31 31 31 31 31 30 30 30 30 30 30 30 30 30 29 29 28 27 27 27 27 27 28 29 29 29 29

GEFSCGP_500_meanwind_288.txt.gz
Wind_Speed
6 5 4 3 2 2 2 2 1 1 3 3 3 5 7 6 7 6 6 7 7 7 8 8 8 8 8 8 9 9 8 8 7 6 6 6 6 6 6 6 6 6 6 7
9 7 6 6 6 4 4 4 1 0 2 3 3 3 6 6 5 6 6 6 6 6 7 7 7 7 7 8 9 9 9 8 7 7 6 6 7 6 6 7 6 6 7 7
11 8 8 7 6 6 6 4 4 4 1 4 4 4 5 4 6 6 6 5 5 5 5 7 6 6 7 7 8 8 8 8 8 7 7 7 7 7 7 6 6 7 8 7
11 11 11 11 10 9 8 6 7 6 5 6 4 5 6 5 5 6 5 5 5 5 6 6 6 7 7 7 7 7 7 7 8 7 7 7 7 7 7 7 7 7 7 8
12 13 13 13 12 10 9 8 8 8 7 7 6 6 5 7 7 7 6 6 5 5 6 6 7 7 7 7 7 7 7 7 7 7 7 7 7 7 8 8 7 7 8 8
16 15 14 14 13 11 11 11 10 8 6 7 7 7 7 7 7 7 8 8 7 6 6 7 8 7 7 7 7 7 7 7 7 7 7 7 7 7 8 8 8 8 8 8
16 15 15 14 14 13 13 12 11 10 9 8 8 8 9 9 8 8 9 9 8 8 7 8 8 8 8 8 7 7 7 7 7 7 7 7 7 8 8 8 9 9 9 10
16 16 16 16 16 16 14 13 12 11 8 8 9 10 11 11 10 10 10 11 10 9 8 8 8 9 9 8 8 8 8 7 7 8 8 8 8 8 8 9 10 10 10 10
17 17 17 18 18 17 15 15 14 13 11 11 11 12 13 12 10 10 10 11 10 9 8 9 9 10 10 9 9 9 9 8 8 8 9 9 9 9 9 10 10 11 11 12
19 18 16 17 17 17 16 15 14 14 14 14 13 12 13 12 12 13 12 12 11 10 8 10 10 10 11 11 10 10 10 9 9 9 9 9 10 10 10 10 11 11 12 13
20 20 19 18 17 16 16 16 16 16 15 14 15 13 14 12 13 14 13 13 12 11 9 11 11 11 11 12 11 11 12 11 11 11 10 10 10 11 11 12 12 12 13 14
22 21 21 19 18 18 17 17 18 18 17 17 17 16 15 15 15 15 15 15 14 13 13 13 13 12 13 13 13 12 12 12 12 12 12 12 12 12 13 13 13 14 14 15
23 23 21 18 18 19 19 19 19 17 18 19 18 15 15 16 17 17 17 18 16 15 15 15 14 14 14 14 13 13 13 13 13 13 13 13 13 14 14 14 14 15 16 16
25 25 25 21 19 19 19 18 19 19 18 19 18 16 16 17 17 18 18 18 17 17 17 16 15 16 15 15 14 14 14 13 13 13 14 14 15 15 15 16 16 17 17 17
26 26 26 25 21 20 18 17 19 20 19 19 18 19 17 18 20 20 20 19 19 18 18 18 18 18 17 16 16 15 15 15 14 15 15 16 17 17 17 17 18 18 19 19
27 28 27 26 23 22 21 19 19 20 20 21 21 20 20 22 23 22 21 21 20 20 19 19 19 19 18 18 17 17 17 16 17 17 17 17 18 18 18 19 19 20 20 20
28 29 28 27 24 24 24 21 21 22 24 24 24 23 23 24 25 25 24 23 22 21 21 21 21 21 20 20 19 18 18 18 18 18 19 19 19 19 20 20 21 21 21 21
28 28 29 28 26 27 25 24 23 23 25 25 26 26 24 25 26 26 25 25 24 23 23 23 22 22 22 21 21 21 20 20 20 20 20 21 21 21 21 21 22 22 22 22
29 29 29 29 27 27 26 25 23 24 25 25 25 26 26 26 28 27 27 26 26 24 24 24 23 23 23 23 22 22 22 22 22 22 22 22 22 22 21 22 22 23 23 23
29 29 29 29 28 27 27 26 25 25 26 27 27 28 28 27 27 28 28 27 27 27 26 26 25 24 24 24 24 23 23 23 22 22 23 22 22 23 23 23 23 24 24 24
30 30 30 30 29 29 28 27 26 27 28 28 29 29 28 29 28 29 28 28 28 27 27 27 27 26 26 25 25 25 24 24 24 23 23 22 22 23 23 23 24 25 25 25
31 32 32 32 31 31 30 28 28 29 29 29 29 29 29 29 29 29 29 29 29 27 27 27 27 27 28 28 28 27 26 25 24 24 24 24 24 25 25 24 25 26 26 26
32 32 32 32 32 32 32 31 30 30 32 32 31 30 29 30 30 30 30 30 30 29 29 28 28 29 29 29 28 28 26 26 26 26 26 26 26 27 26 26 27 27 27 28
33 33 34 34 34 35 34 33 33 33 33 33 32 32 31 31 30 31 31 31 31 31 31 30 30 30 29 29 28 27 28 28 27 27 28 28 28 29 29 29 29 29 29 29
34 33 35 35 34 34 35 35 35 34 33 33 33 33 32 32 32 31 31 31 31 31 31 31 30 30 30 29 28 28 28 28 29 29 30 30 31 31 31 30 30 30 30 31
33 33 35 35 35 36 36 36 36 36 35 34 34 34 33 32 32 33 32 31 31 31 31 30 30 30 29 29 29 29 30 30 30 30 31 32 32 32 31 30 30 30 31 32

GEFSCGP_500_meanwind_294.txt.gz
Wind_Speed
10 7 6 6 5 3 3 3 2 0 2 3 4 5 6 6 6 7 7 8 8 8 9 9 10 10 9 10 10 9 9 8 8 7 7 7 7 7 6 6 6 6 5 5
10 8 7 7 6 4 5 4 3 3 1 2 2 3 4 4 6 5 6 6 6 7 7 7 8 8 8 8 8 8 9 8 7 7 7 7 7 7 7 7 7 6 6 5
11 9 8 8 7 6 5 5 5 4 3 1 2 2 3 3 5 4 5 5 5 5 6 6 6 7 7 7 7 7 7 7 6 6 7 7 7 6 7 7 7 7 6 6
12 11 10 10 8 5 4 5 5 6 4 3 4 4 3 3 3 4 5 5 4 4 5 5 5 6 7 7 7 7 7 6 6 6 6 6 5 6 6 6 6 6 7 7
13 13 12 11 8 7 6 5 5 6 6 5 5 5 3 3 3 4 5 4 3 4 3 4 4 5 6 6 6 7 6 6 5 5 5 6 5 6 6 5 6 6 7 8
13 14 14 12 11 11 9 9 9 8 9 8 6 6 4 4 3 5 6 5 5 4 3 3 3 3 4 5 5 6 6 6 5 5 5 5 5 6 6 6 5 6 7 8
16 16 14 13 12 12 12 11 11 11 11 10 8 8 5 4 5 5 5 5 5 4 3 3 3 3 3 4 5 6 5 5 5 5 5 5 5 5 6 6 6 6 7 8
17 16 14 13 12 12 11 12 12 12 12 10 9 8 6 5 6 6 6 5 6 6 4 3 3 4 3 4 5 6 5 5 5 5 4 5 5 5 5 6 6 7 8 8
17 15 14 14 14 13 13 13 14 14 13 13 11 9 8 8 8 7 7 7 7 6 5 5 4 3 4 5 5 6 6 5 5 5 5 5 6 6 7 7 8 8 9 9
18 17 17 17 17 15 15 14 15 15 16 15 14 11 9 10 10 8 9 8 8 8 6 5 5 5 4 5 6 6 6 6 6 6 6 7 7 7 8 8 8 9 10 10
20 20 19 19 19 17 16 16 16 16 17 16 16 13 12 11 10 10 10 10 9 8 6 6 7 7 6 6 7 7 7 7 7 7 8 8 8 9 9 9 10 10 11 12
22 22 21 21 20 19 18 18 18 18 18 17 17 15 13 13 12 13 12 11 10 8 6 8 9 9 9 9 8 9 9 9 9 9 10 10 10 11 11 11 11 11 12 13
23 23 23 23 22 22 21 19 18 18 18 18 18 16 16 16 15 14 13 11 10 10 9 10 10 11 11 11 10 10 10 11 11 11 11 11 12 13 13 12 12 12 13 14
25 25 24 23 22 23 23 21 20 20 21 20 18 16 16 16 16 16 15 15 13 12 13 12 12 12 11 11 12 12 13 13 13 12 13 13 13 14 14 14 14 14 14 15
27 27 25 23 23 24 23 22 22 22 22 21 19 18 17 16 17 16 15 15 14 14 14 14 14 13 12 13 14 15 14 14 14 14 14 15 15 15 16 15 15 15 15 16
28 28 26 26 26 25 24 24 24 24 23 22 21 19 18 18 19 19 18 17 16 15 15 15 15 14 14 15 16 16 16 16 16 16 16 16 16 17 17 16 17 17 17 17
29 29 29 28 27 27 26 24 25 24 24 24 22 20 20 21 21 20 19 18 17 17 18 18 17 17 17 17 17 18 17 17 17 17 18 18 18 18 17 17 18 18 18 18
31 30 29 29 28 29 27 25 26 27 27 26 25 23 22 22 22 22 21 21 20 19 19 19 20 20 21 20 19 18 19 19 18 18 19 20 19 18 18 19 19 19 20 20
32 31 31 30 30 29 27 27 26 27 27 27 27 26 24 24 23 23 23 23 22 21 21 21 22 22 22 22 20 20 20 20 20 20 20 20 20 20 20 20 20 21 22 21
31 31 31 31 31 31 28 27 27 28 28 28 27 26 26 26 26 25 25 25 25 24 23 22 23 23 23 24 23 22 22 22 21 21 21 22 21 21 21 21 22 23 23 23
31 31 30 31 32 32 29 28 27 28 28 27 27 27 27 28 28 28 27 27 26 25 25 24 24 24 25 24 24 24 23 23 23 23 23 23 23 23 23 23 23 24 25 24
31 31 31 31 32 31 29 29 28 28 29 28 28 28 28 28 28 28 28 28 27 26 26 26 26 26 26 26 26 26 26 25 26 25 25 25 25 25 24 24 25 25 26 26
32 31 31 33 32 31 30 29 29 30 31 30 30 29 29 29 29 28 28 27 27 27 27 27 26 27 27 27 28 28 28 28 28 27 26 27 26 26 26 26 26 27 27 27
31 31 33 33 33 33 32 31 31 31 30 29 28 29 31 31 31 29 28 28 28 28 28 28 28 28 29 29 29 29 29 29 29 28 28 28 27 27 27 28 29 29 28 29
31 32 33 33 33 34 34 34 34 33 32 32 32 31 30 31 31 31 31 30 29 29 30 30 30 30 30 30 30 30 30 30 29 29 29 28 29 28 29 29 30 30 30 30
32 33 34 33 33 33 34 34 34 35 34 34 34 33 33 31 30 31 31 31 31 31 31 32 31 31 31 31 31 31 30 30 30 29 29 29 29 29 30 30 31 31 31 31

GEFSCGP_500_meanwind_300.txt.gz
Wind_Speed
10 9 6 5 4 4 4 3 2 1 1 0 1 2 1 3 4 4 5 5 6 6 7 7 7 7 7 7 6 6 6 6 7 6 6 6 6 6 5 5 5 4 4 5
12 10 8 8 6 6 6 5 4 3 3 2 1 0 1 1 2 3 4 4 4 5 6 7 6 7 6 6 5 5 5 6 6 6 6 6 5 5 5 5 5 5 5 5
13 11 10 9 9 7 6 6 6 6 5 4 3 2 1 0 0 1 2 3 3 3 5 5 5 6 6 5 5 4 4 5 4 5 5 5 5 5 5 5 5 5 5 6
14 12 12 11 10 9 9 8 8 7 7 6 6 4 3 3 2 1 2 2 2 3 4 4 4 5 5 5 5 4 4 4 4 4 4 4 4 5 5 5 5 5 5 6
16 14 13 12 11 10 9 9 9 9 8 8 8 7 5 5 3 2 2 3 2 2 3 4 3 3 4 4 4 4 4 4 4 4 4 4 5 5 5 5 5 5 6 6
18 17 15 14 12 12 11 10 10 10 10 10 9 9 7 6 5 4 4 4 4 3 3 3 3 3 3 4 3 3 3 3 3 3 4 4 5 5 5 5 5 6 6 6
19 18 16 15 14 14 13 12 11 12 11 11 11 11 9 8 8 7 5 5 5 5 4 4 3 2 2 2 2 2 3 3 3 3 4 5 5 5 5 6 6 6 7 7
19 18 17 16 15 14 14 14 14 14 13 13 12 12 11 10 10 9 8 7 7 6 6 5 4 3 2 2 2 2 3 3 3 4 5 5 6 5 6 7 7 7 8 9
19 18 17 16 16 16 15 15 15 16 15 15 13 13 12 11 12 11 10 9 8 7 7 6 5 6 4 4 3 3 4 4 4 4 5 6 6 6 7 8 8 8 9 10
20 19 18 17 17 17 17 17 17 17 17 17 15 14 13 13 13 13 11 11 10 9 9 7 7 6 6 5 4 4 5 5 5 5 5 6 7 7 8 9 9 10 10 11
21 20 20 20 19 17 18 17 17 17 17 18 17 16 14 13 12 13 12 11 10 9 9 9 8 7 7 7 7 6 7 7 7 7 7 7 8 9 9 10 11 11 11 12
22 22 21 21 21 20 19 18 18 18 18 18 18 17 16 15 14 14 12 11 10 10 10 10 9 8 8 8 8 8 8 8 9 9 9 9 10 10 11 12 12 13 12 13
23 24 23 23 23 23 22 21 20 20 20 20 20 19 18 18 16 15 13 12 12 11 11 11 11 10 10 9 9 9 10 10 10 11 11 11 12 12 13 13 14 14 15 15
24 25 25 24 23 24 23 22 22 21 21 21 19 19 19 19 18 17 15 14 13 12 12 13 13 12 12 11 11 12 12 12 12 12 13 13 14 14 15 15 16 17 17 17
26 26 25 25 25 25 25 24 23 23 23 23 21 20 20 20 19 18 17 16 15 14 15 15 14 14 14 14 13 13 14 13 13 14 15 16 16 16 16 17 18 18 18 19
27 28 27 26 26 27 27 26 26 24 23 23 23 22 21 21 20 19 18 18 17 17 16 16 14 14 14 15 15 15 15 15 15 16 16 17 17 18 18 18 19 19 20 20
28 29 29 28 28 28 28 27 26 26 25 24 24 23 22 22 21 21 19 19 18 18 17 17 16 16 17 17 17 17 17 17 17 18 18 18 19 19 19 20 20 21 21 21
29 29 30 29 29 29 27 27 27 26 26 25 25 25 24 23 23 23 22 21 20 19 19 18 19 19 19 20 19 19 19 19 19 19 20 20 20 21 21 22 22 23 23 23
30 29 30 30 30 29 28 28 28 28 26 26 26 25 24 24 24 24 24 23 23 22 22 21 21 21 21 22 22 21 21 22 21 21 22 23 22 22 22 23 23 24 24 24
30 30 30 31 31 31 29 29 29 29 28 27 26 26 25 25 25 24 24 25 25 24 24 24 23 22 22 23 23 23 23 23 22 23 23 24 25 24 24 24 25 25 26 26
30 31 31 31 31 31 30 30 29 30 30 29 28 28 27 26 26 26 26 26 27 27 26 26 25 25 24 25 25 25 25 24 24 24 25 25 26 26 26 26 25 25 26 26
31 32 32 32 31 30 30 30 30 31 31 30 30 29 29 28 27 27 28 28 28 28 28 28 28 28 28 27 26 26 27 27 27 27 27 27 27 28 29 28 27 27 27 28
34 33 33 33 32 31 31 31 30 31 31 31 30 29 29 29 29 28 28 28 29 29 29 29 30 30 30 30 28 28 29 29 29 28 28 29 29 30 29 29 29 29 29 30
35 34 34 33 33 33 32 31 31 31 31 31 30 30 30 29 29 30 30 29 29 30 30 31 31 32 32 31 30 30 29 29 29 30 30 31 31 31 31 32 32 32 32 32
35 35 34 34 33 34 33 33 32 32 32 31 31 31 30 30 29 29 29 29 30 30 30 30 32 33 33 32 31 30 30 30 31 31 32 32 33 33 33 33 33 34 34 34
34 34 34 33 34 34 34 34 34 33 32 32 32 31 30 30 29 29 29 29 29 30 30 31 31 32 33 33 32 31 31 30 31 32 32 32 33 34 35 34 35 35 35 35

GEFSCGP_500_meanwind_306.txt.gz
Wind_Speed
7 5 5 4 4 3 3 2 1 1 0 0 1 2 3 3 4 4 4 5 5 5 6 6 7 7 6 6 5 5 5 5 5 5 5 5 6 5 5 5 4 5 5 5
8 8 7 5 4 3 3 2 2 2 1 0 1 2 3 3 3 3 4 4 4 5 5 5 6 6 6 5 5 4 4 4 4 4 5 5 5 5 5 5 5 5 5 5
10 10 9 7 5 4 4 4 3 2 2 1 1 3 3 2 3 3 4 4 4 4 4 5 5 5 5 5 4 4 3 3 4 4 4 4 5 5 5 5 5 5 5 5
12 11 10 9 7 6 5 5 4 3 3 3 2 3 4 4 3 4 4 5 5 4 4 5 5 5 5 4 4 4 3 3 3 3 3 4 4 4 4 4 5 5 5 4
13 12 11 10 9 8 7 7 6 5 4 5 5 4 5 5 4 4 5 5 5 5 4 4 5 5 4 4 4 3 3 2 1 2 3 3 4 4 4 4 5 5 5 5
14 13 13 12 11 10 9 8 7 7 6 7 7 5 5 6 5 4 5 6 5 5 5 5 5 5 4 4 4 4 3 3 2 2 2 3 4 4 4 5 6 6 6 6
15 15 14 13 12 11 10 8 8 8 8 9 8 7 7 7 6 6 6 7 6 6 6 6 6 5 5 5 5 5 5 5 4 3 3 3 4 4 5 5 6 7 7 7
16 15 15 14 13 12 11 10 10 9 9 9 10 9 9 8 7 7 7 7 7 7 7 7 7 7 7 7 7 6 6 5 4 4 4 4 5 5 6 6 7 7 8 8
17 17 16 16 15 14 13 12 11 10 11 10 10 11 10 11 9 8 7 7 8 8 9 9 9 8 8 8 8 8 8 7 7 6 6 6 6 6 7 7 8 8 9 9
18 18 18 17 16 16 15 13 12 12 12 11 11 11 11 11 10 9 9 9 9 9 9 9 9 9 10 10 10 10 10 9 8 7 6 7 7 8 8 8 9 10 11 10
19 19 19 18 17 16 16 15 14 13 13 11 11 11 12 12 11 10 9 9 10 10 10 10 10 11 11 12 12 11 11 10 10 9 8 8 8 10 9 9 10 11 11 12
20 20 20 20 19 18 18 17 16 15 15 13 12 13 13 12 12 12 11 11 11 11 11 12 12 13 13 13 13 12 12 11 11 11 11 11 11 11 11 11 11 12 13 13
21 21 20 20 20 20 20 18 18 17 16 15 13 14 15 14 13 13 12 12 12 12 12 13 13 14 14 14 14 13 13 13 13 13 13 12 12 13 13 14 14 15 16 16
22 23 21 20 21 21 21 20 19 18 17 17 16 16 16 16 15 15 14 13 12 13 13 13 14 14 15 15 15 15 15 15 15 15 14 14 15 15 16 16 16 17 18 18
22 23 23 23 23 22 21 20 20 20 20 19 18 18 18 18 17 17 16 15 14 13 14 14 14 15 15 16 16 17 17 17 17 17 17 17 17 18 18 18 18 19 20 20
23 23 23 23 23 23 23 22 22 22 22 21 20 20 20 19 19 19 18 17 17 16 16 17 17 17 17 18 18 19 18 19 18 19 19 19 19 20 20 21 21 22 22 22
24 24 23 23 23 23 24 24 24 23 23 22 22 21 22 22 21 21 20 19 19 19 19 18 18 19 19 20 20 21 20 21 21 21 22 22 21 22 23 23 23 24 24 23
24 24 24 23 23 24 24 24 24 24 24 23 23 23 23 23 23 23 22 22 22 21 21 21 20 20 21 22 22 22 22 23 23 23 24 24 24 25 25 25 25 24 24 24
26 25 25 24 24 24 25 24 24 24 25 24 25 25 24 24 24 25 24 24 24 23 23 23 22 22 23 23 24 24 24 24 25 25 25 25 25 26 26 26 26 26 26 26
27 26 26 26 25 23 24 23 23 24 26 25 25 26 25 25 26 26 26 26 26 25 25 25 25 25 26 26 26 26 26 26 26 27 27 27 27 27 28 27 27 27 28 28
27 27 27 26 26 25 26 25 24 24 26 26 26 26 26 26 27 27 27 28 27 27 27 27 27 27 28 28 28 27 27 28 28 29 29 30 29 29 29 29 29 29 29 29
28 28 28 28 27 27 28 28 27 27 27 27 27 27 27 28 27 27 27 27 28 27 27 27 28 29 29 29 29 29 29 29 30 30 31 31 31 31 31 31 31 31 30 29
29 29 29 30 30 30 31 30 29 29 28 28 27 28 28 28 28 28 28 27 28 28 28 28 29 30 30 30 30 31 31 31 31 31 32 32 33 32 32 32 32 31 31 30
30 30 30 30 30 30 30 30 30 30 29 29 28 29 29 29 28 28 28 28 29 29 29 30 30 31 31 31 31 32 32 32 32 32 33 33 33 33 32 32 32 31 31 31
29 28 29 30 29 30 29 29 30 30 30 31 30 30 29 29 29 29 28 29 29 30 30 31 31 32 32 32 32 33 33 32 31 31 32 32 33 32 32 32 32 31 31 32
29 29 29 30 29 30 30 30 31 31 31 31 31 31 30 30 30 30 29 30 30 31 32 32 32 33 33 33 33 33 33 32 32 32 32 32 32 32 32 32 32 32 33 32